Gallup, NM

6:19 PM MDT on July 30, 2016 (GMT -0600)
Gallup Municipal

Weather History for KGUP - July, 2013

Change the Weather History Date:

Thursday, July 18, 2013

  Actual Average Record
Temperature  
Mean Temperature 73 °F -  
Max Temperature 86 °F 86 °F 98 °F (2005)
Min Temperature 60 °F 52 °F 40 °F (1993)
Cooling Degree Days 8    
Growing Degree Days 23 (Base 50)    
Moisture  
Dew Point 47 °F    
Average Humidity 43    
Maximum Humidity 69    
Minimum Humidity 22    
Precipitation  
Precipitation 0.00 in - - ()
Sea Level Pressure  
Sea Level Pressure 29.77 in    
Wind  
Wind Speed 7 mph (SSE)    
Max Wind Speed 15 mph    
Max Gust Speed 23 mph    
Visibility 10 miles    
Events      
Averages and records for this station are not official NWS values.
T = Trace of Precipitation, MM = Missing Value Source: NWS Daily Summary

Daily Weather History Graph

Daily Weather History Graph

Search for Another Location

Airport or City:

Trip Planner

Search our weather history database for the weather conditions in past years. The results will help you decide how hot, cold, wet, or windy it might be!

Date:

Astronomy

Jul. 18, 2013 Rise Set
Actual Time 6:13 AM MDT 8:29 PM MDT
Civil Twilight 5:44 AM MDT 8:57 PM MDT
Nautical Twilight 5:08 AM MDT 9:33 PM MDT
Astronomical Twilight 4:30 AM MDT 10:12 PM MDT
Moon 4:30 PM MDT (7/18) 2:04 AM MDT (7/18)
Length of Visible Light 15h 13m
Length of Day
14h 15m
Waxing Gibbous, 78% of the Moon is Illuminated
Jul 18
Waxing Gibbous
Jul 22
Full
Jul 29
Last Quarter
Aug 6
New
Aug 14
First Quarter

Hourly Weather History & Observations

Time (MDT) Temp. Dew Point Humidity Pressure Visibility Wind Dir Wind Speed Gust Speed Precip Events Conditions
12:53 AM 66.9 °F 46.0 °F 47% 29.86 in 10.0 mi SSE 13.8 mph - N/A   Overcast
1:53 AM 64.9 °F 48.0 °F 54% 29.86 in 10.0 mi SSE 11.5 mph - N/A   Overcast
2:53 AM 64.9 °F 48.9 °F 56% 29.83 in 10.0 mi SSE 5.8 mph - N/A   Overcast
3:53 AM 62.1 °F 48.9 °F 62% 29.84 in 10.0 mi Calm Calm - N/A   Mostly Cloudy
4:53 AM 60.1 °F 48.9 °F 67% 29.83 in 10.0 mi Calm Calm - N/A   Scattered Clouds
5:53 AM 60.1 °F 50.0 °F 69% 29.86 in 10.0 mi Calm Calm - N/A   Overcast
6:53 AM 62.1 °F 51.1 °F 67% 29.89 in 10.0 mi East 3.5 mph - N/A   Mostly Cloudy
7:53 AM 64.9 °F 51.1 °F 61% 29.88 in 10.0 mi ENE 4.6 mph - N/A   Clear
8:53 AM 69.1 °F 48.9 °F 49% 29.86 in 10.0 mi South 6.9 mph - N/A   Clear
9:53 AM 71.1 °F 48.0 °F 44% 29.83 in 10.0 mi WSW 3.5 mph - N/A   Clear
10:53 AM 75.0 °F 46.9 °F 37% 29.81 in 10.0 mi Variable 5.8 mph - N/A   Clear
11:53 AM 79.0 °F 46.9 °F 32% 29.77 in 10.0 mi East 15.0 mph 18.4 mph N/A   Clear
12:53 PM 81.0 °F 46.0 °F 29% 29.75 in 10.0 mi East 10.4 mph - N/A   Clear
1:53 PM 82.9 °F 44.1 °F 25% 29.73 in 10.0 mi NE 10.4 mph 23.0 mph N/A   Clear
2:53 PM 84.9 °F 44.1 °F 24% 29.69 in 10.0 mi SE 9.2 mph 18.4 mph N/A   Partly Cloudy
3:53 PM 82.9 °F 43.0 °F 24% 29.68 in 10.0 mi Calm Calm - N/A   Partly Cloudy
4:53 PM 86.0 °F 43.0 °F 22% 29.66 in 10.0 mi Calm Calm - N/A   Mostly Cloudy
5:53 PM 82.9 °F 45.0 °F 26% 29.67 in 10.0 mi South 9.2 mph - N/A   Overcast
6:53 PM 80.1 °F 46.0 °F 30% 29.68 in 10.0 mi SSE 13.8 mph - N/A   Partly Cloudy
7:53 PM 79.0 °F 46.0 °F 31% 29.68 in 10.0 mi SSW 5.8 mph - N/A   Clear
8:53 PM 75.0 °F 46.9 °F 37% 29.70 in 10.0 mi SSW 6.9 mph - N/A   Clear
9:53 PM 71.1 °F 46.9 °F 42% 29.74 in 10.0 mi Calm Calm - N/A   Partly Cloudy
10:53 PM 72.0 °F 48.0 °F 43% 29.72 in 10.0 mi South 6.9 mph - N/A   Partly Cloudy
11:53 PM 70.0 °F 48.9 °F 47% 29.70 in 10.0 mi South 5.8 mph - N/A   Partly Cloudy